Starlink 31772

operational
NORAD ID: 59430 Int'l Des: 2024-065 Owner: SPXS Country: US Constellation: starlink
LEOCIRCULAR

About Starlink 31772

Description loading...

Live Position

Loading 3D Globe...

Upcoming Passes

Altitude History

Altitude vs Time

uPlot chart will show altitude changes over time

Two-Line Element Set

1 59430U 24065K 25312.80000336 .00001814 00000-0 73364-4 0 9992
2 59430 53.1582 122.9835 0001248 87.9316 272.1827 15.30196002 90427
Epoch: Nov 8, 2025 • Age: 36 hours

Current Status

Altitude 493.7 km
Velocity 7.62 km/s
Sub-Earth Point -51.14°S, 105.08°W
Launch Date Apr 7, 2024
Age 1.5 years
Type internet

Technical Details

Classification Payload
Mass 730.00 kg
Dry Mass 700.00 kg
Total Mass 730.00 kg
Length 0.30 m
Diameter 4.10 m
Span 29.00 m
Shape Box + pan
Manufacturer SPXS
Bus Type Starlink V2M
Phase Status In Orbit
Owner/State SPXS/US

Large Constellations

Loading constellations...